Theta_e
335 335 337 340 341 343 342 343 340 340 342 342 341 341 342 341 341 340 339 338 338 339 337 336 332 329 326
335 332 330 333 336 338 338 337 334 334 335 336 335 337 339 340 340 340 338 338 338 337 335 333 329 327 323
325 327 330 330 330 331 332 330 330 334 334 332 331 333 338 337 338 338 337 337 335 332 332 328 326 324 324
313 314 324 331 333 334 335 334 333 332 332 332 327 328 332 332 335 337 336 333 330 327 329 326 326 323 325
305 308 311 317 321 317 319 322 332 332 330 331 330 329 330 325 330 333 331 330 327 328 328 326 325 323 325
301 302 305 308 313 317 317 316 313 326 330 330 329 328 328 328 325 326 327 326 326 328 326 326 325 323 324
301 301 302 302 306 310 316 318 317 314 317 328 328 327 327 326 325 326 325 323 324 326 325 325 325 323 324
299 300 300 302 303 305 308 313 318 318 318 314 324 327 326 326 325 325 324 323 323 325 324 324 323 323 323
298 299 300 301 304 302 304 309 310 318 318 317 312 315 326 326 325 325 324 322 321 323 324 324 323 322 321
297 298 299 300 300 301 303 304 306 308 311 315 313 312 318 326 325 324 322 320 319 320 321 323 323 323 322
297 298 298 298 299 300 300 301 303 306 308 313 313 311 311 317 324 324 322 320 318 319 319 321 319 320 322
295 294 295 296 297 298 299 300 302 304 306 310 310 310 309 307 307 323 321 321 319 318 312 305 301 301 303
292 291 291 291 292 293 296 298 300 301 304 303 302 303 307 305 304 304 321 319 318 316 301 298 295 295 297
290 290 290 289 290 290 292 293 295 296 298 298 299 301 305 305 304 304 302 318 318 307 309 303 295 295 293
288 288 288 287 287 287 288 290 293 295 297 297 298 299 302 303 302 302 304 303 313 306 316 308 296 303 293
286 285 284 283 282 285 286 288 289 291 292 294 297 299 300 302 302 303 304 305 307 306 312 314 303 297 303
Wind_Speed
5 8 12 15 16 16 15 14 14 15 15 16 16 17 17 16 15 15 15 16 15 14 15 13 14 11 9
7 7 5 10 13 14 14 13 13 14 14 14 13 15 16 15 15 15 18 16 16 15 13 16 14 12 6
5 7 7 7 11 13 12 13 12 8 9 9 10 12 15 15 14 15 17 17 14 10 14 15 15 5 6
4 6 5 5 6 8 8 9 8 8 8 9 9 13 15 14 14 16 18 16 13 5 6 12 6 6 6
5 4 3 2 3 4 9 12 7 6 6 7 6 7 8 10 7 11 11 8 8 7 9 8 6 5 5
3 3 3 4 4 3 3 4 7 7 5 6 5 7 7 6 7 7 6 7 9 11 10 11 9 6 4
4 3 4 3 3 4 3 2 2 0 8 5 5 6 7 7 8 8 7 8 9 12 13 12 11 10 8
5 5 4 4 4 3 3 3 2 3 1 3 8 6 7 8 8 9 9 9 9 10 12 12 12 10 10
7 6 5 5 4 4 4 5 6 3 2 1 4 8 7 8 11 10 10 9 9 9 12 11 11 13 11
7 7 7 6 5 5 4 4 6 6 6 5 5 4 9 10 9 9 11 10 10 11 10 11 10 12 13
8 7 7 8 5 5 5 4 6 8 8 7 6 7 5 7 12 11 11 13 11 11 10 10 7 7 10
6 5 5 6 7 6 5 5 6 6 8 9 5 6 8 7 7 13 16 14 12 12 8 5 3 4 2
7 9 9 9 9 8 6 8 10 9 8 8 7 8 6 8 11 9 13 18 13 10 7 2 2 2 4
8 9 8 9 9 10 10 11 12 13 13 12 12 11 10 9 10 10 9 10 12 15 10 7 4 2 1
13 9 8 9 9 9 8 8 7 9 12 14 15 13 12 10 10 12 11 14 11 11 19 8 5 7 4
12 11 12 11 13 10 11 10 11 12 14 15 15 14 13 11 13 12 12 15 11 15 13 15 2 8 6
Wind_Direction
352 332 266 218 216 221 221 226 221 215 201 193 195 187 184 189 187 182 172 172 179 188 188 171 150 146 142
344 333 315 289 255 224 221 218 216 213 211 200 192 194 194 193 190 183 174 178 182 195 198 156 155 151 140
5 345 322 297 272 269 242 224 213 219 209 204 203 196 200 197 198 187 182 180 184 182 158 158 148 164 153
1 4 358 5 317 267 246 253 218 213 214 195 194 200 205 201 193 191 187 182 174 151 170 161 168 160 168
10 358 5 10 31 18 17 0 252 227 219 210 196 202 203 205 202 195 189 186 173 161 175 174 167 159 175
10 16 5 6 356 15 6 15 27 320 234 219 217 205 199 197 200 190 187 169 174 187 173 178 179 172 172
1 347 348 354 351 337 2 341 274 179 343 264 216 207 204 198 200 197 181 172 179 189 196 189 182 188 183
344 334 317 316 308 320 322 316 253 263 272 341 308 220 214 207 202 196 179 178 182 187 191 197 191 185 186
328 316 313 299 295 280 280 291 307 281 254 167 245 307 215 214 207 203 182 176 177 183 193 189 192 190 185
317 308 299 289 279 276 255 240 259 272 263 223 262 275 288 217 208 211 188 181 187 189 194 189 187 192 186
304 303 298 293 281 273 276 263 250 250 253 241 215 225 270 280 215 199 201 188 185 193 195 196 187 188 192
307 293 278 281 280 269 263 262 266 259 252 252 227 220 207 261 273 215 200 191 194 191 170 156 142 130 127
316 312 302 298 299 289 279 271 269 265 252 255 263 257 225 209 237 269 236 194 186 166 135 86 24 63 151
312 304 293 292 287 288 284 276 270 268 264 259 255 253 234 227 227 238 251 234 185 167 181 151 188 235 260
310 301 297 294 288 285 280 275 266 265 261 257 255 250 242 224 229 227 238 260 196 183 192 169 163 213 138
308 301 295 289 289 285 286 282 277 265 260 263 263 254 246 238 230 224 211 227 281 192 200 203 111 137 188